Time,TemperatureF,DewpointF,PressureIn,WindDirection,WindDirectionDegrees,WindSpeedMPH,WindSpeedGustMPH,Humidity,HourlyPrecipIn,Conditions,Clouds,dailyrainin,SoftwareType,DateUTC
2013-12-01 00:03:00,75.4,66.9,29.95,ENE,63,5.0,6.0,75,0.00,,,0.00,meteohub,2013-12-01 10:03:00,
2013-12-01 00:08:00,75.6,67.1,29.94,East,95,4.0,7.0,75,0.00,,,0.00,meteohub,2013-12-01 10:08:00,
2013-12-01 00:13:00,75.6,67.1,29.94,East,90,5.0,7.0,75,0.00,,,0.00,meteohub,2013-12-01 10:13:00,
2013-12-01 00:18:00,75.6,67.1,29.94,SE,124,4.0,7.0,75,0.00,,,0.00,meteohub,2013-12-01 10:18:00,
2013-12-01 00:23:00,75.6,66.7,29.94,East,100,2.0,8.0,74,0.00,,,0.00,meteohub,2013-12-01 10:23:00,
2013-12-01 00:28:00,75.6,66.7,29.94,East,100,5.0,8.0,74,0.00,,,0.00,meteohub,2013-12-01 10:28:00,
2013-12-01 00:34:00,75.6,66.4,29.94,East,101,2.0,8.0,73,0.00,,,0.00,meteohub,2013-12-01 10:34:00,
2013-12-01 00:39:00,75.6,66.4,29.94,ESE,105,2.0,5.0,73,0.00,,,0.00,meteohub,2013-12-01 10:39:00,
2013-12-01 00:44:00,75.6,65.8,29.94,East,82,2.0,5.0,72,0.00,,,0.00,meteohub,2013-12-01 10:44:00,
2013-12-01 00:49:00,75.4,65.7,29.94,East,80,1.0,3.0,72,0.00,,,0.00,meteohub,2013-12-01 10:49:00,
2013-12-01 00:54:00,75.4,65.7,29.93,ENE,70,2.0,3.0,72,0.00,,,0.00,meteohub,2013-12-01 10:54:00,
2013-12-01 00:59:00,75.6,65.5,29.93,ENE,73,2.0,2.0,71,0.00,,,0.00,meteohub,2013-12-01 10:59:00,
2013-12-01 01:04:00,75.6,65.1,29.92,East,80,1.0,3.0,70,0.00,,,0.00,meteohub,2013-12-01 11:04:00,
2013-12-01 01:09:00,75.6,65.5,29.93,ENE,72,1.0,3.0,71,0.00,,,0.00,meteohub,2013-12-01 11:09:00,
2013-12-01 01:14:00,75.6,65.5,29.93,ENE,72,0.0,3.0,71,0.00,,,0.00,meteohub,2013-12-01 11:14:00,
2013-12-01 01:19:00,75.4,65.7,29.92,ENE,72,1.0,3.0,72,0.00,,,0.00,meteohub,2013-12-01 11:19:00,
2013-12-01 01:24:00,75.0,65.8,29.92,ENE,74,1.0,2.0,73,0.00,,,0.00,meteohub,2013-12-01 11:24:00,
2013-12-01 01:29:00,74.8,65.7,29.92,ENE,72,1.0,2.0,73,0.00,,,0.00,meteohub,2013-12-01 11:29:00,
2013-12-01 01:34:00,75.2,65.5,29.92,ENE,72,1.0,2.0,72,0.00,,,0.00,meteohub,2013-12-01 11:34:00,
2013-12-01 01:39:00,75.0,65.8,29.91,NE,50,1.0,2.0,73,0.00,,,0.00,meteohub,2013-12-01 11:39:00,
2013-12-01 01:44:00,75.0,65.8,29.91,East,92,1.0,3.0,73,0.00,,,0.00,meteohub,2013-12-01 11:44:00,
2013-12-01 01:49:00,74.8,65.7,29.91,East,97,1.0,3.0,73,0.00,,,0.00,meteohub,2013-12-01 11:49:00,
2013-12-01 01:54:00,74.8,66.0,29.91,ESE,108,3.0,3.0,74,0.00,,,0.00,meteohub,2013-12-01 11:54:00,
2013-12-01 02:00:00,74.8,66.0,29.91,ENE,58,3.0,3.0,74,0.00,,,0.00,meteohub,2013-12-01 12:00:00,
2013-12-01 02:05:00,75.0,66.2,29.91,ENE,59,2.0,5.0,74,0.00,,,0.00,meteohub,2013-12-01 12:05:00,
2013-12-01 02:10:00,75.4,66.6,29.91,East,82,2.0,6.0,74,0.00,,,0.00,meteohub,2013-12-01 12:10:00,
2013-12-01 02:15:00,75.6,66.4,29.90,ESE,103,3.0,6.0,73,0.00,,,0.00,meteohub,2013-12-01 12:15:00,
2013-12-01 02:20:00,75.6,66.7,29.91,ENE,69,1.0,6.0,74,0.00,,,0.00,meteohub,2013-12-01 12:20:00,
2013-12-01 02:25:00,75.9,66.6,29.91,NE,53,1.0,6.0,73,0.00,,,0.00,meteohub,2013-12-01 12:25:00,
2013-12-01 02:30:00,75.9,66.2,29.90,NE,51,1.0,4.0,72,0.00,,,0.00,meteohub,2013-12-01 12:30:00,
2013-12-01 02:35:00,75.9,66.2,29.90,East,91,2.0,4.0,72,0.00,,,0.00,meteohub,2013-12-01 12:35:00,
2013-12-01 02:40:00,75.4,66.2,29.89,East,89,1.0,4.0,73,0.00,,,0.00,meteohub,2013-12-01 12:40:00,
2013-12-01 02:45:00,75.0,66.2,29.89,ENE,62,3.0,3.0,74,0.00,,,0.00,meteohub,2013-12-01 12:45:00,
2013-12-01 02:50:00,75.0,66.2,29.89,ENE,77,1.0,7.0,74,0.00,,,0.00,meteohub,2013-12-01 12:50:00,
2013-12-01 02:55:00,75.0,66.2,29.88,NE,56,1.0,7.0,74,0.00,,,0.00,meteohub,2013-12-01 12:55:00,
2013-12-01 03:00:00,74.8,66.4,29.88,NE,42,1.0,3.0,75,0.00,,,0.00,meteohub,2013-12-01 13:00:00,
2013-12-01 03:05:00,75.0,66.9,29.88,NNE,33,0.0,4.0,76,0.00,,,0.00,meteohub,2013-12-01 13:05:00,
2013-12-01 03:10:00,75.0,66.6,29.88,East,94,1.0,4.0,75,0.00,,,0.00,meteohub,2013-12-01 13:10:00,
2013-12-01 03:15:00,74.5,66.0,29.88,NE,44,0.0,3.0,75,0.00,,,0.00,meteohub,2013-12-01 13:15:00,
2013-12-01 03:20:00,74.3,65.8,29.88,ENE,60,2.0,2.0,75,0.00,,,0.00,meteohub,2013-12-01 13:20:00,
2013-12-01 03:25:00,74.1,65.3,29.88,ENE,58,2.0,3.0,74,0.00,,,0.00,meteohub,2013-12-01 13:25:00,
2013-12-01 03:30:00,73.8,65.3,29.88,NE,49,3.0,3.0,75,0.00,,,0.00,meteohub,2013-12-01 13:30:00,
2013-12-01 03:36:00,73.9,65.5,29.88,NE,44,1.0,3.0,75,0.00,,,0.00,meteohub,2013-12-01 13:36:00,
2013-12-01 03:41:00,73.9,65.8,29.88,NE,55,1.0,3.0,76,0.00,,,0.00,meteohub,2013-12-01 13:41:00,
2013-12-01 03:46:00,73.9,65.8,29.88,ENE,74,1.0,3.0,76,0.00,,,0.00,meteohub,2013-12-01 13:46:00,
2013-12-01 03:51:00,73.8,65.3,29.89,ENE,65,2.0,2.0,75,0.00,,,0.00,meteohub,2013-12-01 13:51:00,
2013-12-01 03:56:00,73.6,65.1,29.90,East,86,2.0,3.0,75,0.00,,,0.00,meteohub,2013-12-01 13:56:00,
2013-12-01 04:01:00,73.0,64.9,29.90,ENE,72,2.0,3.0,76,0.00,,,0.00,meteohub,2013-12-01 14:01:00,
2013-12-01 04:06:00,72.9,64.8,29.89,ENE,78,1.0,3.0,76,0.00,,,0.00,meteohub,2013-12-01 14:06:00,
2013-12-01 04:11:00,73.0,65.5,29.89,ENE,57,3.0,4.0,77,0.00,,,0.00,meteohub,2013-12-01 14:11:00,
2013-12-01 04:16:00,73.0,65.8,29.89,NNE,26,2.0,4.0,78,0.00,,,0.00,meteohub,2013-12-01 14:16:00,
2013-12-01 04:21:00,73.0,65.5,29.89,NE,49,1.0,4.0,77,0.00,,,0.00,meteohub,2013-12-01 14:21:00,
2013-12-01 04:26:00,72.7,65.1,29.89,NE,53,3.0,3.0,77,0.00,,,0.00,meteohub,2013-12-01 14:26:00,
2013-12-01 04:31:00,72.7,65.5,29.90,ENE,70,1.0,4.0,78,0.00,,,0.00,meteohub,2013-12-01 14:31:00,
2013-12-01 04:36:00,72.9,65.7,29.89,NE,48,5.0,6.0,78,0.00,,,0.00,meteohub,2013-12-01 14:36:00,
2013-12-01 04:41:00,73.0,65.8,29.89,NNE,25,3.0,6.0,78,0.00,,,0.00,meteohub,2013-12-01 14:41:00,
2013-12-01 04:46:00,73.0,65.5,29.89,ENE,58,2.0,7.0,77,0.00,,,0.00,meteohub,2013-12-01 14:46:00,
2013-12-01 04:51:00,73.0,64.9,29.89,ENE,78,2.0,7.0,76,0.00,,,0.00,meteohub,2013-12-01 14:51:00,
2013-12-01 04:56:00,73.0,64.6,29.89,NE,50,1.0,6.0,75,0.00,,,0.00,meteohub,2013-12-01 14:56:00,
2013-12-01 05:01:00,73.0,64.6,29.90,NE,41,0.0,4.0,75,0.00,,,0.00,meteohub,2013-12-01 15:01:00,
2013-12-01 05:07:00,72.7,64.8,29.90,NNW,340,0.0,3.0,76,0.00,,,0.00,meteohub,2013-12-01 15:07:00,
2013-12-01 05:12:00,72.3,64.4,29.90,NNE,18,1.0,4.0,76,0.00,,,0.00,meteohub,2013-12-01 15:12:00,
2013-12-01 05:17:00,72.3,63.9,29.90,North,11,1.0,4.0,75,0.00,,,0.00,meteohub,2013-12-01 15:17:00,
2013-12-01 05:22:00,72.7,63.9,29.91,NE,40,1.0,4.0,74,0.00,,,0.00,meteohub,2013-12-01 15:22:00,
2013-12-01 05:27:00,72.9,63.3,29.90,North,11,0.0,4.0,72,0.00,,,0.00,meteohub,2013-12-01 15:27:00,
2013-12-01 05:32:00,72.9,63.0,29.91,NE,47,1.0,4.0,71,0.00,,,0.00,meteohub,2013-12-01 15:32:00,
2013-12-01 05:37:00,73.2,62.8,29.91,NNW,329,1.0,3.0,70,0.00,,,0.00,meteohub,2013-12-01 15:37:00,
2013-12-01 05:42:00,73.0,62.6,29.91,NNE,30,1.0,3.0,70,0.00,,,0.00,meteohub,2013-12-01 15:42:00,
2013-12-01 05:47:00,73.4,62.6,29.91,NNW,327,3.0,3.0,69,0.00,,,0.00,meteohub,2013-12-01 15:47:00,
2013-12-01 05:52:00,72.7,62.8,29.91,North,5,0.0,5.0,71,0.00,,,0.00,meteohub,2013-12-01 15:52:00,
2013-12-01 05:57:00,72.5,62.6,29.91,North,354,1.0,5.0,71,0.00,,,0.00,meteohub,2013-12-01 15:57:00,
2013-12-01 06:02:00,72.5,62.6,29.92,ENE,72,1.0,5.0,71,0.00,,,0.00,meteohub,2013-12-01 16:02:00,
2013-12-01 06:07:00,72.3,62.4,29.92,ENE,70,1.0,3.0,71,0.00,,,0.00,meteohub,2013-12-01 16:07:00,
2013-12-01 06:12:00,72.7,62.8,29.93,WNW,298,0.0,3.0,71,0.00,,,0.00,meteohub,2013-12-01 16:12:00,
2013-12-01 06:17:00,72.3,62.4,29.93,East,79,2.0,3.0,71,0.00,,,0.00,meteohub,2013-12-01 16:17:00,
2013-12-01 06:22:00,72.3,62.4,29.94,ENE,70,1.0,3.0,71,0.00,,,0.00,meteohub,2013-12-01 16:22:00,
2013-12-01 06:27:00,72.7,62.8,29.94,North,359,0.0,3.0,71,0.00,,,0.00,meteohub,2013-12-01 16:27:00,
2013-12-01 06:32:00,72.1,62.6,29.94,ENE,58,2.0,3.0,72,0.00,,,0.00,meteohub,2013-12-01 16:32:00,
2013-12-01 06:37:00,72.1,62.6,29.94,ENE,58,1.0,3.0,72,0.00,,,0.00,meteohub,2013-12-01 16:37:00,
2013-12-01 06:42:00,72.0,62.4,29.95,ENE,78,2.0,3.0,72,0.00,,,0.00,meteohub,2013-12-01 16:42:00,
2013-12-01 06:47:00,72.1,63.0,29.95,ENE,58,2.0,3.0,73,0.00,,,0.00,meteohub,2013-12-01 16:47:00,
2013-12-01 06:52:00,72.3,63.5,29.95,NNE,32,2.0,3.0,74,0.00,,,0.00,meteohub,2013-12-01 16:52:00,
2013-12-01 06:57:00,72.7,63.5,29.95,NE,52,2.0,4.0,73,0.00,,,0.00,meteohub,2013-12-01 16:57:00,
2013-12-01 07:02:00,72.7,63.1,29.95,NE,50,2.0,4.0,72,0.00,,,0.00,meteohub,2013-12-01 17:02:00,
2013-12-01 07:07:00,72.7,63.1,29.95,ENE,69,1.0,5.0,72,0.00,,,0.00,meteohub,2013-12-01 17:07:00,
2013-12-01 07:12:00,72.7,63.1,29.96,NE,55,0.0,5.0,72,0.00,,,0.00,meteohub,2013-12-01 17:12:00,
2013-12-01 07:17:00,72.9,63.3,29.96,ENE,73,1.0,3.0,72,0.00,,,0.00,meteohub,2013-12-01 17:17:00,
2013-12-01 07:22:00,72.9,63.3,29.96,East,81,2.0,3.0,72,0.00,,,0.00,meteohub,2013-12-01 17:22:00,
2013-12-01 07:27:00,73.2,63.7,29.96,ENE,71,1.0,3.0,72,0.00,,,0.00,meteohub,2013-12-01 17:27:00,
2013-12-01 07:32:00,73.6,64.0,29.96,NE,43,2.0,3.0,72,0.00,,,0.00,meteohub,2013-12-01 17:32:00,
2013-12-01 07:37:00,73.9,64.4,29.96,NE,46,2.0,3.0,72,0.00,,,0.00,meteohub,2013-12-01 17:37:00,
2013-12-01 07:42:00,74.1,64.0,29.96,NE,46,2.0,4.0,71,0.00,,,0.00,meteohub,2013-12-01 17:42:00,
2013-12-01 07:47:00,74.5,64.4,29.96,NNE,12,1.0,5.0,71,0.00,,,0.00,meteohub,2013-12-01 17:47:00,
2013-12-01 07:52:00,74.8,64.8,29.97,NE,36,0.0,5.0,71,0.00,,,0.00,meteohub,2013-12-01 17:52:00,
2013-12-01 07:57:00,75.0,64.9,29.97,NE,48,4.0,5.0,71,0.00,,,0.00,meteohub,2013-12-01 17:57:00,
2013-12-01 08:02:00,75.6,65.8,29.97,NNE,27,2.0,6.0,72,0.00,,,0.00,meteohub,2013-12-01 18:02:00,
2013-12-01 08:07:00,75.7,66.0,29.97,ENE,58,3.0,6.0,72,0.00,,,0.00,meteohub,2013-12-01 18:07:00,
2013-12-01 08:12:00,75.9,66.2,29.97,NE,34,3.0,6.0,72,0.00,,,0.00,meteohub,2013-12-01 18:12:00,
2013-12-01 08:17:00,76.3,66.6,29.98,NE,42,2.0,6.0,72,0.00,,,0.00,meteohub,2013-12-01 18:17:00,
2013-12-01 08:22:00,76.8,66.7,29.98,ENE,65,4.0,6.0,71,0.00,,,0.00,meteohub,2013-12-01 18:22:00,
2013-12-01 08:27:00,77.2,66.6,29.98,NE,56,2.0,6.0,70,0.00,,,0.00,meteohub,2013-12-01 18:27:00,
2013-12-01 08:32:00,77.5,66.9,29.97,NE,46,2.0,7.0,70,0.00,,,0.00,meteohub,2013-12-01 18:32:00,
2013-12-01 08:37:00,77.7,66.7,29.98,ENE,61,5.0,9.0,69,0.00,,,0.00,meteohub,2013-12-01 18:37:00,
2013-12-01 08:42:00,77.7,66.7,29.98,West,274,1.0,9.0,69,0.00,,,0.00,meteohub,2013-12-01 18:42:00,
2013-12-01 08:47:00,77.9,66.9,29.98,ENE,61,4.0,9.0,69,0.00,,,0.00,meteohub,2013-12-01 18:47:00,
2013-12-01 08:52:00,78.4,66.9,29.98,ENE,58,3.0,8.0,68,0.00,,,0.00,meteohub,2013-12-01 18:52:00,
2013-12-01 08:57:00,78.8,66.9,29.98,NNE,15,0.0,7.0,67,0.00,,,0.00,meteohub,2013-12-01 18:57:00,
2013-12-01 09:02:00,79.0,66.6,29.98,North,1,2.0,7.0,66,0.00,,,0.00,meteohub,2013-12-01 19:02:00,
2013-12-01 09:07:00,79.0,66.6,29.98,NE,43,5.0,8.0,66,0.00,,,0.00,meteohub,2013-12-01 19:07:00,
2013-12-01 09:12:00,79.0,66.2,29.98,NE,50,1.0,8.0,65,0.00,,,0.00,meteohub,2013-12-01 19:12:00,
2013-12-01 09:17:00,79.0,66.2,29.98,NE,51,2.0,8.0,65,0.00,,,0.00,meteohub,2013-12-01 19:17:00,
2013-12-01 09:22:00,79.3,66.6,29.98,NE,50,4.0,7.0,65,0.00,,,0.00,meteohub,2013-12-01 19:22:00,
2013-12-01 09:27:00,80.1,67.6,29.98,NNE,17,3.0,6.0,66,0.00,,,0.00,meteohub,2013-12-01 19:27:00,
2013-12-01 09:32:00,80.6,67.3,29.98,NNE,25,2.0,7.0,64,0.00,,,0.00,meteohub,2013-12-01 19:32:00,
2013-12-01 09:37:00,80.8,67.5,29.98,WNW,286,0.0,7.0,64,0.00,,,0.00,meteohub,2013-12-01 19:37:00,
2013-12-01 09:39:00,81.0,67.6,29.98,WNW,296,2.0,7.0,64,0.00,,,0.00,meteohub,2013-12-01 19:39:00,
2013-12-01 09:44:00,80.2,67.5,29.99,WNW,302,7.0,7.0,65,0.00,,,0.00,meteohub,2013-12-01 19:44:00,
2013-12-01 09:49:00,79.2,68.9,29.99,WNW,288,9.0,11.0,71,0.00,,,0.00,meteohub,2013-12-01 19:49:00,
2013-12-01 09:54:00,78.4,69.4,29.99,WNW,294,7.0,16.0,74,0.00,,,0.00,meteohub,2013-12-01 19:54:00,
2013-12-01 09:59:00,78.4,69.8,29.99,NW,321,5.0,16.0,75,0.00,,,0.00,meteohub,2013-12-01 19:59:00,
2013-12-01 10:04:00,78.8,69.8,29.99,WNW,287,4.0,16.0,74,0.00,,,0.00,meteohub,2013-12-01 20:04:00,
2013-12-01 10:10:00,78.6,69.6,29.99,WNW,283,4.0,8.0,74,0.00,,,0.00,meteohub,2013-12-01 20:10:00,
2013-12-01 10:15:00,78.6,70.0,29.99,NNW,327,5.0,7.0,75,0.00,,,0.00,meteohub,2013-12-01 20:15:00,
2013-12-01 10:20:00,78.6,69.6,29.99,WNW,300,4.0,7.0,74,0.00,,,0.00,meteohub,2013-12-01 20:20:00,
2013-12-01 10:25:00,78.8,70.2,29.98,WNW,285,2.0,7.0,75,0.00,,,0.00,meteohub,2013-12-01 20:25:00,
2013-12-01 10:30:00,79.2,70.2,29.98,NW,321,3.0,6.0,74,0.00,,,0.00,meteohub,2013-12-01 20:30:00,
2013-12-01 10:35:00,79.2,70.2,29.98,NW,307,3.0,7.0,74,0.00,,,0.00,meteohub,2013-12-01 20:35:00,
2013-12-01 10:40:00,79.0,70.0,29.98,NW,317,3.0,8.0,74,0.00,,,0.00,meteohub,2013-12-01 20:40:00,
2013-12-01 10:45:00,79.0,70.3,29.98,NW,308,4.0,8.0,75,0.00,,,0.00,meteohub,2013-12-01 20:45:00,
2013-12-01 10:50:00,78.6,69.6,29.97,North,350,2.0,6.0,74,0.00,,,0.00,meteohub,2013-12-01 20:50:00,
2013-12-01 10:55:00,78.6,69.6,29.97,WSW,243,1.0,6.0,74,0.00,,,0.00,meteohub,2013-12-01 20:55:00,
2013-12-01 11:00:00,78.8,69.8,29.97,North,359,0.0,6.0,74,0.00,,,0.00,meteohub,2013-12-01 21:00:00,
2013-12-01 11:05:00,79.5,70.5,29.97,East,91,1.0,7.0,74,0.00,,,0.00,meteohub,2013-12-01 21:05:00,
2013-12-01 11:10:00,80.1,70.7,29.97,NE,39,2.0,7.0,73,0.00,,,0.00,meteohub,2013-12-01 21:10:00,
2013-12-01 11:16:00,80.2,70.3,29.97,NNW,332,0.0,6.0,72,0.00,,,0.00,meteohub,2013-12-01 21:16:00,
2013-12-01 11:21:00,80.2,70.3,29.97,NW,309,2.0,6.0,72,0.00,,,0.00,meteohub,2013-12-01 21:21:00,
2013-12-01 11:26:00,79.5,70.2,29.97,WSW,256,1.0,7.0,73,0.00,,,0.00,meteohub,2013-12-01 21:26:00,
2013-12-01 11:31:00,79.3,70.3,29.97,NW,323,3.0,7.0,74,0.00,,,0.00,meteohub,2013-12-01 21:31:00,
2013-12-01 11:36:00,79.2,70.5,29.97,WNW,302,3.0,7.0,75,0.00,,,0.00,meteohub,2013-12-01 21:36:00,
2013-12-01 11:41:00,79.2,70.5,29.97,West,273,3.0,6.0,75,0.00,,,0.00,meteohub,2013-12-01 21:41:00,
2013-12-01 11:46:00,79.0,70.7,29.97,NW,306,3.0,6.0,76,0.00,,,0.00,meteohub,2013-12-01 21:46:00,
2013-12-01 11:51:00,79.0,70.7,29.97,WSW,252,5.0,6.0,76,0.00,,,0.00,meteohub,2013-12-01 21:51:00,
2013-12-01 11:56:00,79.2,70.9,29.96,WSW,253,3.0,6.0,76,0.00,,,0.00,meteohub,2013-12-01 21:56:00,
2013-12-01 12:01:00,79.2,71.2,29.96,ENE,62,2.0,6.0,77,0.00,,,0.00,meteohub,2013-12-01 22:01:00,
2013-12-01 12:06:00,79.3,71.4,29.96,NW,304,2.0,8.0,77,0.00,,,0.00,meteohub,2013-12-01 22:06:00,
2013-12-01 12:11:00,79.3,71.4,29.96,WSW,246,0.0,8.0,77,0.00,,,0.00,meteohub,2013-12-01 22:11:00,
2013-12-01 12:16:00,79.3,71.4,29.96,WNW,295,4.0,8.0,77,0.00,,,0.00,meteohub,2013-12-01 22:16:00,
2013-12-01 12:21:00,79.3,72.0,29.96,WNW,290,3.0,5.0,78,0.00,,,0.00,meteohub,2013-12-01 22:21:00,
2013-12-01 12:26:00,79.7,71.8,29.95,NW,314,4.0,5.0,77,0.00,,,0.00,meteohub,2013-12-01 22:26:00,
2013-12-01 12:31:00,79.9,72.9,29.94,NW,312,5.0,6.0,79,0.00,,,0.00,meteohub,2013-12-01 22:31:00,
2013-12-01 12:36:00,80.4,72.9,29.94,NW,315,2.0,6.0,78,0.00,,,0.00,meteohub,2013-12-01 22:36:00,
2013-12-01 12:42:00,80.4,72.5,29.94,NW,307,1.0,6.0,77,0.00,,,0.00,meteohub,2013-12-01 22:42:00,
2013-12-01 12:47:00,80.8,73.2,29.93,WNW,300,6.0,6.0,78,0.00,,,0.00,meteohub,2013-12-01 22:47:00,
2013-12-01 12:52:00,80.8,72.9,29.93,WNW,295,6.0,7.0,77,0.00,,,0.00,meteohub,2013-12-01 22:52:00,
2013-12-01 12:57:00,80.2,73.0,29.92,West,280,4.0,9.0,79,0.00,,,0.00,meteohub,2013-12-01 22:57:00,
2013-12-01 13:02:00,80.2,73.6,29.92,West,280,3.0,9.0,80,0.00,,,0.00,meteohub,2013-12-01 23:02:00,
2013-12-01 13:07:00,80.6,73.9,29.92,WNW,298,3.0,9.0,80,0.00,,,0.00,meteohub,2013-12-01 23:07:00,
2013-12-01 13:12:00,80.6,73.0,29.91,West,269,3.0,7.0,78,0.00,,,0.00,meteohub,2013-12-01 23:12:00,
2013-12-01 13:17:00,80.4,73.8,29.91,WNW,300,6.0,6.0,80,0.00,,,0.00,meteohub,2013-12-01 23:17:00,
2013-12-01 13:22:00,80.2,72.7,29.91,WNW,283,4.0,8.0,78,0.00,,,0.00,meteohub,2013-12-01 23:22:00,
2013-12-01 13:27:00,80.2,73.0,29.90,WNW,283,4.0,8.0,79,0.00,,,0.00,meteohub,2013-12-01 23:27:00,
2013-12-01 13:32:00,80.4,72.9,29.89,WNW,300,3.0,8.0,78,0.00,,,0.00,meteohub,2013-12-01 23:32:00,
2013-12-01 13:37:00,80.4,72.5,29.89,West,278,2.0,7.0,77,0.00,,,0.00,meteohub,2013-12-01 23:37:00,
2013-12-01 13:42:00,80.8,71.8,29.88,West,274,3.0,7.0,74,0.00,,,0.00,meteohub,2013-12-01 23:42:00,
2013-12-01 13:47:00,81.1,72.5,29.88,West,278,6.0,7.0,75,0.00,,,0.00,meteohub,2013-12-01 23:47:00,
2013-12-01 13:52:00,81.3,73.0,29.88,NW,314,7.0,8.0,76,0.00,,,0.00,meteohub,2013-12-01 23:52:00,
2013-12-01 13:57:00,81.1,72.9,29.88,NW,318,6.0,8.0,76,0.00,,,0.00,meteohub,2013-12-01 23:57:00,
2013-12-01 14:02:00,81.0,72.7,29.88,WNW,300,4.0,8.0,76,0.00,,,0.00,meteohub,2013-12-02 00:02:00,
2013-12-01 14:07:00,81.0,72.7,29.87,NW,313,7.0,10.0,76,0.00,,,0.00,meteohub,2013-12-02 00:07:00,
2013-12-01 14:12:00,81.1,73.6,29.87,WNW,291,6.0,10.0,78,0.00,,,0.00,meteohub,2013-12-02 00:12:00,
2013-12-01 14:17:00,81.1,73.6,29.87,WNW,294,7.0,11.0,78,0.00,,,0.00,meteohub,2013-12-02 00:17:00,
2013-12-01 14:22:00,80.8,73.9,29.87,WNW,292,10.0,13.0,80,0.00,,,0.00,meteohub,2013-12-02 00:22:00,
2013-12-01 14:27:00,80.2,73.6,29.87,WNW,297,8.0,13.0,80,0.00,,,0.00,meteohub,2013-12-02 00:27:00,
2013-12-01 14:32:00,80.2,73.0,29.86,West,281,5.0,13.0,79,0.00,,,0.00,meteohub,2013-12-02 00:32:00,
2013-12-01 14:37:00,80.4,74.1,29.86,WNW,286,9.0,12.0,81,0.00,,,0.00,meteohub,2013-12-02 00:37:00,
2013-12-01 14:42:00,80.1,73.4,29.87,West,281,7.0,12.0,80,0.00,,,0.00,meteohub,2013-12-02 00:42:00,
2013-12-01 14:47:00,79.9,73.2,29.86,NW,316,7.0,12.0,80,0.00,,,0.00,meteohub,2013-12-02 00:47:00,
2013-12-01 14:52:00,80.1,73.8,29.86,WNW,286,9.0,12.0,81,0.00,,,0.00,meteohub,2013-12-02 00:52:00,
2013-12-01 14:57:00,79.9,73.6,29.86,WNW,296,8.0,11.0,81,0.00,,,0.00,meteohub,2013-12-02 00:57:00,
2013-12-01 15:02:00,79.5,73.2,29.86,WNW,298,7.0,12.0,81,0.00,,,0.00,meteohub,2013-12-02 01:02:00,
2013-12-01 15:07:00,80.1,74.1,29.86,NW,323,7.0,12.0,82,0.00,,,0.00,meteohub,2013-12-02 01:07:00,
2013-12-01 15:12:00,80.1,72.5,29.86,WNW,299,6.0,12.0,78,0.00,,,0.00,meteohub,2013-12-02 01:12:00,
2013-12-01 15:17:00,80.2,72.3,29.86,NW,316,7.0,11.0,77,0.00,,,0.00,meteohub,2013-12-02 01:17:00,
2013-12-01 15:22:00,80.2,72.3,29.86,WNW,294,8.0,11.0,77,0.00,,,0.00,meteohub,2013-12-02 01:22:00,
2013-12-01 15:27:00,80.4,72.1,29.86,NW,316,5.0,11.0,76,0.00,,,0.00,meteohub,2013-12-02 01:27:00,
2013-12-01 15:32:00,80.8,73.2,29.86,NW,317,10.0,11.0,78,0.00,,,0.00,meteohub,2013-12-02 01:32:00,
2013-12-01 15:37:00,80.6,72.0,29.87,NW,326,10.0,11.0,75,0.00,,,0.00,meteohub,2013-12-02 01:37:00,
2013-12-01 15:42:00,80.8,72.9,29.87,NW,304,10.0,12.0,77,0.00,,,0.00,meteohub,2013-12-02 01:42:00,
2013-12-01 15:47:00,80.8,72.1,29.87,WNW,300,9.0,14.0,75,0.00,,,0.00,meteohub,2013-12-02 01:47:00,
2013-12-01 15:52:00,80.4,71.4,29.88,WNW,297,10.0,14.0,74,0.00,,,0.00,meteohub,2013-12-02 01:52:00,
2013-12-01 15:57:00,80.1,71.4,29.88,NW,321,7.0,16.0,75,0.00,,,0.00,meteohub,2013-12-02 01:57:00,
2013-12-01 16:02:00,80.1,71.1,29.88,WNW,295,5.0,16.0,74,0.00,,,0.00,meteohub,2013-12-02 02:02:00,
2013-12-01 16:07:00,80.1,70.7,29.88,NW,321,10.0,16.0,73,0.00,,,0.00,meteohub,2013-12-02 02:07:00,
2013-12-01 16:12:00,79.9,70.9,29.88,WNW,296,8.0,13.0,74,0.00,,,0.00,meteohub,2013-12-02 02:12:00,
2013-12-01 16:17:00,79.7,71.1,29.89,NNW,330,6.0,13.0,75,0.00,,,0.00,meteohub,2013-12-02 02:17:00,
2013-12-01 16:22:00,79.5,70.9,29.89,WNW,299,7.0,11.0,75,0.00,,,0.00,meteohub,2013-12-02 02:22:00,
2013-12-01 16:27:00,79.3,70.7,29.89,NNW,327,5.0,12.0,75,0.00,,,0.00,meteohub,2013-12-02 02:27:00,
2013-12-01 16:32:00,79.3,71.1,29.89,WNW,302,6.0,12.0,76,0.00,,,0.00,meteohub,2013-12-02 02:32:00,
2013-12-01 16:37:00,79.5,71.6,29.90,NNW,335,4.0,11.0,77,0.00,,,0.00,meteohub,2013-12-02 02:37:00,
2013-12-01 16:42:00,79.7,71.1,29.90,NW,311,5.0,11.0,75,0.00,,,0.00,meteohub,2013-12-02 02:42:00,
2013-12-01 16:47:00,79.5,70.2,29.90,NW,309,6.0,10.0,73,0.00,,,0.00,meteohub,2013-12-02 02:47:00,
2013-12-01 16:52:00,79.5,70.5,29.90,NNW,329,6.0,10.0,74,0.00,,,0.00,meteohub,2013-12-02 02:52:00,
2013-12-01 16:57:00,79.7,70.7,29.91,NW,308,7.0,11.0,74,0.00,,,0.00,meteohub,2013-12-02 02:57:00,
2013-12-01 17:02:00,79.9,70.9,29.91,NW,316,3.0,11.0,74,0.00,,,0.00,meteohub,2013-12-02 03:02:00,
2013-12-01 17:07:00,79.9,70.9,29.91,NW,304,4.0,11.0,74,0.00,,,0.00,meteohub,2013-12-02 03:07:00,
2013-12-01 17:12:00,79.5,70.9,29.91,WNW,297,4.0,9.0,75,0.00,,,0.00,meteohub,2013-12-02 03:12:00,
2013-12-01 17:17:00,79.5,70.9,29.91,NW,308,5.0,9.0,75,0.00,,,0.00,meteohub,2013-12-02 03:17:00,
2013-12-01 17:22:00,79.2,70.5,29.91,NW,316,5.0,7.0,75,0.00,,,0.00,meteohub,2013-12-02 03:22:00,
2013-12-01 17:27:00,79.0,70.7,29.91,NW,312,1.0,8.0,76,0.00,,,0.00,meteohub,2013-12-02 03:27:00,
2013-12-01 17:32:00,78.6,70.9,29.91,WNW,300,7.0,8.0,77,0.00,,,0.00,meteohub,2013-12-02 03:32:00,
2013-12-01 17:37:00,78.6,72.3,29.92,NW,307,4.0,7.0,81,0.00,,,0.00,meteohub,2013-12-02 03:37:00,
2013-12-01 17:42:00,78.3,72.3,29.92,NW,314,4.0,9.0,82,0.00,,,0.00,meteohub,2013-12-02 03:42:00,
2013-12-01 17:47:00,77.7,72.1,29.93,NNW,328,2.0,9.0,83,0.00,,,0.00,meteohub,2013-12-02 03:47:00,
2013-12-01 17:52:00,77.5,72.0,29.93,NNW,335,2.0,7.0,83,0.00,,,0.00,meteohub,2013-12-02 03:52:00,
2013-12-01 17:57:00,77.4,72.1,29.93,NW,326,5.0,6.0,84,0.00,,,0.00,meteohub,2013-12-02 03:57:00,
2013-12-01 18:02:00,77.4,72.1,29.94,NW,314,2.0,7.0,84,0.00,,,0.00,meteohub,2013-12-02 04:02:00,
2013-12-01 18:07:00,77.4,72.1,29.94,NW,307,6.0,7.0,84,0.00,,,0.00,meteohub,2013-12-02 04:07:00,
2013-12-01 18:12:00,77.4,72.5,29.95,WNW,284,6.0,9.0,85,0.00,,,0.00,meteohub,2013-12-02 04:12:00,
2013-12-01 18:17:00,77.2,72.3,29.95,WNW,295,4.0,9.0,85,0.00,,,0.00,meteohub,2013-12-02 04:17:00,
2013-12-01 18:22:00,77.2,72.0,29.96,WNW,300,6.0,9.0,84,0.00,,,0.00,meteohub,2013-12-02 04:22:00,
2013-12-01 18:27:00,76.8,71.6,29.96,WNW,295,3.0,9.0,84,0.00,,,0.00,meteohub,2013-12-02 04:27:00,
2013-12-01 18:32:00,76.6,71.4,29.96,West,278,3.0,9.0,84,0.00,,,0.00,meteohub,2013-12-02 04:32:00,
2013-12-01 18:37:00,76.6,71.1,29.97,NW,308,5.0,9.0,83,0.00,,,0.00,meteohub,2013-12-02 04:37:00,
2013-12-01 18:42:00,76.6,71.1,29.97,NW,308,5.0,8.0,83,0.00,,,0.00,meteohub,2013-12-02 04:42:00,
2013-12-01 18:47:00,76.5,70.9,29.97,NW,307,2.0,8.0,83,0.00,,,0.00,meteohub,2013-12-02 04:47:00,
2013-12-01 18:52:00,76.5,70.9,29.97,NNE,32,0.0,7.0,83,0.00,,,0.00,meteohub,2013-12-02 04:52:00,
2013-12-01 18:57:00,76.3,70.3,29.97,North,9,1.0,5.0,82,0.00,,,0.00,meteohub,2013-12-02 04:57:00,
2013-12-01 19:01:00,76.3,70.3,29.97,ENE,57,2.0,4.0,82,0.00,,,0.00,meteohub,2013-12-02 05:01:00,
2013-12-01 19:02:00,76.3,70.3,29.97,ENE,57,0.0,4.0,82,0.00,,,0.00,meteohub,2013-12-02 05:02:00,
2013-12-01 19:04:00,76.3,70.3,29.97,NNE,30,1.0,4.0,82,0.00,,,0.00,meteohub,2013-12-02 05:04:00,
2013-12-01 19:07:00,76.3,70.3,29.96,NE,43,2.0,4.0,82,0.00,,,0.00,meteohub,2013-12-02 05:07:00,
2013-12-01 19:09:00,76.3,70.3,29.96,NE,37,1.0,4.0,82,0.00,,,0.00,meteohub,2013-12-02 05:09:00,
2013-12-01 19:14:00,76.3,70.3,29.96,NE,54,2.0,4.0,82,0.00,,,0.00,meteohub,2013-12-02 05:14:00,
2013-12-01 19:19:00,76.3,70.3,29.96,East,98,2.0,4.0,82,0.00,,,0.00,meteohub,2013-12-02 05:19:00,
2013-12-01 19:24:00,76.5,70.5,29.95,East,96,5.0,5.0,82,0.00,,,0.00,meteohub,2013-12-02 05:24:00,
2013-12-01 19:29:00,76.6,70.3,29.94,ENE,71,1.0,7.0,81,0.00,,,0.00,meteohub,2013-12-02 05:29:00,
2013-12-01 19:34:00,76.5,70.2,29.94,ENE,73,3.0,7.0,81,0.00,,,0.00,meteohub,2013-12-02 05:34:00,
2013-12-01 19:39:00,76.5,69.8,29.94,ENE,61,1.0,7.0,80,0.00,,,0.00,meteohub,2013-12-02 05:39:00,
2013-12-01 19:44:00,76.5,69.8,29.93,ENE,75,2.0,8.0,80,0.00,,,0.00,meteohub,2013-12-02 05:44:00,
2013-12-01 19:49:00,76.3,69.6,29.93,East,91,3.0,8.0,80,0.00,,,0.00,meteohub,2013-12-02 05:49:00,
2013-12-01 19:55:00,76.3,69.6,29.92,ENE,59,0.0,8.0,80,0.00,,,0.00,meteohub,2013-12-02 05:55:00,
2013-12-01 20:00:00,76.1,69.4,29.92,NW,316,1.0,4.0,80,0.00,,,0.00,meteohub,2013-12-02 06:00:00,
2013-12-01 20:05:00,75.9,69.6,29.92,WNW,301,4.0,4.0,81,0.00,,,0.00,meteohub,2013-12-02 06:05:00,
2013-12-01 20:10:00,75.7,69.8,29.94,WNW,298,5.0,5.0,82,0.00,,,0.00,meteohub,2013-12-02 06:10:00,
2013-12-01 20:15:00,76.1,70.2,29.96,WNW,288,4.0,8.0,82,0.00,,,0.00,meteohub,2013-12-02 06:15:00,
2013-12-01 20:20:00,76.5,70.5,29.96,WNW,302,2.0,10.0,82,0.00,,,0.00,meteohub,2013-12-02 06:20:00,
2013-12-01 20:25:00,76.6,70.7,29.97,NW,307,3.0,10.0,82,0.00,,,0.00,meteohub,2013-12-02 06:25:00,
2013-12-01 20:30:00,76.6,70.7,29.97,NNW,329,5.0,10.0,82,0.00,,,0.00,meteohub,2013-12-02 06:30:00,
2013-12-01 20:35:00,76.8,71.2,29.97,NW,317,1.0,7.0,83,0.00,,,0.00,meteohub,2013-12-02 06:35:00,
2013-12-01 20:40:00,76.8,71.2,29.98,NNW,327,2.0,6.0,83,0.00,,,0.00,meteohub,2013-12-02 06:40:00,
2013-12-01 20:45:00,76.6,71.1,29.98,NNW,339,0.0,6.0,83,0.00,,,0.00,meteohub,2013-12-02 06:45:00,
2013-12-01 20:50:00,76.6,71.1,29.98,NNE,22,0.0,3.0,83,0.00,,,0.00,meteohub,2013-12-02 06:50:00,
2013-12-01 20:55:00,76.6,71.1,29.98,North,359,0.0,3.0,83,0.00,,,0.00,meteohub,2013-12-02 06:55:00,
2013-12-01 21:00:00,76.6,71.4,29.98,NW,316,1.0,5.0,84,0.00,,,0.00,meteohub,2013-12-02 07:00:00,
2013-12-01 21:05:00,76.6,71.4,29.98,West,281,1.0,5.0,84,0.00,,,0.00,meteohub,2013-12-02 07:05:00,
2013-12-01 21:11:00,76.6,71.4,29.98,West,281,1.0,5.0,84,0.00,,,0.00,meteohub,2013-12-02 07:11:00,
2013-12-01 21:16:00,76.6,71.4,29.98,NE,40,2.0,7.0,84,0.00,,,0.00,meteohub,2013-12-02 07:16:00,
2013-12-01 21:21:00,76.3,70.7,29.98,NE,37,2.0,7.0,83,0.00,,,0.00,meteohub,2013-12-02 07:21:00,
2013-12-01 21:26:00,76.1,70.5,29.98,NE,44,1.0,5.0,83,0.00,,,0.00,meteohub,2013-12-02 07:26:00,
2013-12-01 21:31:00,76.3,70.3,29.98,NE,52,0.0,4.0,82,0.00,,,0.00,meteohub,2013-12-02 07:31:00,
2013-12-01 21:36:00,76.3,70.0,29.97,ESE,112,2.0,4.0,81,0.00,,,0.00,meteohub,2013-12-02 07:36:00,
2013-12-01 21:41:00,76.3,70.0,29.98,West,267,1.0,4.0,81,0.00,,,0.00,meteohub,2013-12-02 07:41:00,
2013-12-01 21:46:00,76.3,70.3,29.98,WSW,255,4.0,4.0,82,0.00,,,0.00,meteohub,2013-12-02 07:46:00,
2013-12-01 21:51:00,76.5,70.9,29.98,ENE,68,3.0,5.0,83,0.00,,,0.00,meteohub,2013-12-02 07:51:00,
2013-12-01 21:56:00,76.3,70.7,29.98,NE,44,2.0,7.0,83,0.00,,,0.00,meteohub,2013-12-02 07:56:00,
2013-12-01 22:01:00,76.3,70.7,29.98,East,87,0.0,7.0,83,0.00,,,0.00,meteohub,2013-12-02 08:01:00,
2013-12-01 22:06:00,75.9,70.7,29.98,NW,306,2.0,7.0,84,0.02,,,0.02,meteohub,2013-12-02 08:06:00,
2013-12-01 22:11:00,75.4,70.5,29.98,NW,321,7.0,10.0,85,0.03,,,0.03,meteohub,2013-12-02 08:11:00,
2013-12-01 22:16:00,74.8,70.3,29.99,NW,309,7.0,10.0,86,0.03,,,0.03,meteohub,2013-12-02 08:16:00,
2013-12-01 22:21:00,74.7,70.5,29.98,NNW,335,7.0,10.0,87,0.03,,,0.03,meteohub,2013-12-02 08:21:00,
2013-12-01 22:26:00,74.5,70.3,29.98,WNW,300,3.0,9.0,87,0.03,,,0.03,meteohub,2013-12-02 08:26:00,
2013-12-01 22:31:00,74.5,70.3,29.98,WNW,292,3.0,9.0,87,0.03,,,0.03,meteohub,2013-12-02 08:31:00,
2013-12-01 22:36:00,74.5,70.7,29.98,NW,308,6.0,8.0,88,0.03,,,0.03,meteohub,2013-12-02 08:36:00,
2013-12-01 22:41:00,74.5,70.3,29.98,NW,312,2.0,8.0,87,0.03,,,0.03,meteohub,2013-12-02 08:41:00,
2013-12-01 22:47:00,74.5,70.7,29.98,NW,310,5.0,8.0,88,0.03,,,0.03,meteohub,2013-12-02 08:47:00,
2013-12-01 22:52:00,74.7,70.9,29.99,WNW,302,3.0,7.0,88,0.03,,,0.03,meteohub,2013-12-02 08:52:00,
2013-12-01 22:57:00,74.7,70.9,29.98,NW,314,3.0,6.0,88,0.03,,,0.03,meteohub,2013-12-02 08:57:00,
2013-12-01 23:02:00,74.7,70.9,29.98,NW,323,1.0,6.0,88,0.02,,,0.03,meteohub,2013-12-02 09:02:00,
2013-12-01 23:07:00,74.5,70.7,29.98,NNW,328,0.0,6.0,88,0.01,,,0.03,meteohub,2013-12-02 09:07:00,
2013-12-01 23:12:00,74.5,70.7,29.98,NW,308,1.0,6.0,88,0.00,,,0.03,meteohub,2013-12-02 09:12:00,
2013-12-01 23:17:00,74.5,70.7,29.98,NW,307,2.0,3.0,88,0.00,,,0.03,meteohub,2013-12-02 09:17:00,
2013-12-01 23:22:00,74.5,70.7,29.98,NW,312,0.0,4.0,88,0.00,,,0.03,meteohub,2013-12-02 09:22:00,
2013-12-01 23:27:00,74.5,70.7,29.98,NW,323,0.0,4.0,88,0.00,,,0.03,meteohub,2013-12-02 09:27:00,
2013-12-01 23:32:00,74.5,70.7,29.97,NNE,25,1.0,2.0,88,0.00,,,0.03,meteohub,2013-12-02 09:32:00,
2013-12-01 23:37:00,74.5,70.7,29.97,ENE,75,1.0,2.0,88,0.00,,,0.03,meteohub,2013-12-02 09:37:00,
2013-12-01 23:42:00,74.3,70.5,29.97,East,89,1.0,2.0,88,0.00,,,0.03,meteohub,2013-12-02 09:42:00,
2013-12-01 23:47:00,74.3,70.9,29.97,East,95,1.0,2.0,89,0.00,,,0.03,meteohub,2013-12-02 09:47:00,
2013-12-01 23:52:00,74.3,70.5,29.97,East,98,0.0,2.0,88,0.00,,,0.03,meteohub,2013-12-02 09:52:00,
2013-12-01 23:57:00,74.3,70.9,29.97,East,98,0.0,1.0,89,0.00,,,0.03,meteohub,2013-12-02 09:57:00,